Location: Narrabri
(30.3170°S, 149.7830°E)
Time: 14:35:34
(UTC+10:00)

ISS - Visible Passes

Search period start: 26 September 2018 00:00
Search period end: 06 October 2018 00:00
Orbit: 403 x 408 km, 51.6° (Epoch: 26 September)

Date Brightness Start Highest point End Pass type
(mag) Time Alt. Az. Time Alt. Az. Time Alt. Az.
26 Sep -0.7 04:07:47 10° NE 04:08:29 11° NE 04:09:11 10° ENE visible
27 Sep -3.7 04:50:02 14° NW 04:52:44 77° NE 04:56:02 10° SE visible
28 Sep -2.3 04:00:50 31° NE 04:00:55 31° NE 04:03:54 10° ESE visible
29 Sep -2.9 04:44:09 24° W 04:45:25 33° SW 04:48:28 10° SSE visible
30 Sep -2.4 03:54:38 37° SSE 03:54:38 37° SSE 03:56:47 10° SE visible
01 Oct -1.7 04:37:40 14° SW 04:38:15 14° SW 04:40:08 10° S visible
02 Oct -1.3 03:47:55 16° S 03:47:55 16° S 03:48:58 10° SSE visible
